Location: Asheville, NC
(35.6000°N, 82.5500°W)
Time: 13:33:00
(UTC-05:00)

Vanguard 1 - Pass Details

Date: 09 February 2018
Orbit: 650 x 3833 km, 34.2° (Epoch: 21 February)

Event Time Altitude Azimuth Distance (km) Brightness Sun altitude
Rises 02:15:43 0° 258° (WSW) 3,719 - -60.7°
Reaches altitude 10° 02:20:16 10° 227° (SW) 3,279 - -60.0°
Maximum altitude 02:23:06 12° 206° (SSW) 3,459 - -59.6°
Drops below altitude 10° 02:26:25 10° 187° (S) 4,016 - -59.0°
Sets 02:34:05 0° 161° (SSE) 5,901 - -57.7°
